FENGYUN 1C DEB *

Satellite information

Favourite Embed

Satellite Type and Status

DEBRISIN ORBIT

Key statistics

Satellite FENGYUN 1C DEB * at a glance.

Uptime

9714

Days in orbit

Revolutions

≈ 13.8

Per day

Orbit

SSO

Sun Synchronous Orbit

Inclination

99.5

Latest

Satellite identification and parameters

Extended collection of information and parameters for FENGYUN 1C DEB *.

Object identification

Identified? True

Debris? True

Object name: FENGYUN 1C DEB *

International designator: 1999-025EZP

Object number (NORAD): 46989

Object ID (CCSDS): 46989

Country: PEOPLES REPUBLIC OF CHINA (PRC)

Current information (Y/N): Y

RCS size: SMALL

Orbital parameters

Period: 104.401 minutes

Inclination: 99.5086 deg

SMA: 7344.521 km

Apoapsis: 1142.661 km

Periapsis: 790.11 km

RAAN: 147.1941 deg

Eccentricy: 0.02400096

Argument of periapsis: 340.6799 deg

Mean anomaly: 46.0855 deg

Mean motion: 13.79296249 rev/day

Mean motion (dot): 0.00007825 rev/day2

B* drag term: 0.0061779506 1/REarth

Two-line elements (TLE)

Creation date: Dec. 11, 2025, 7:14 p.m.

Reference frame: TEME

Reference center: EARTH

Epoch: Dec. 11, 2025, 10:11 a.m. UTC

TLE line 0: 0 FENGYUN 1C DEB *

TLE line 1: 1 46989U 99025EZP 25345.42496144 .00007825 00000-0 61780-2 0 9990

TLE line 2: 2 46989 99.5086 147.1941 0240010 340.6799 46.0855 13.79296249710241

Live tracking on map

Real-time ground track for satellite FENGYUN 1C DEB *.

In-orbit conjunctions

A list of the most updated potential collisions computed for object FENGYUN 1C DEB *.

Target Orbit TCA Probability of collision Miss distance Type
SL-14 DEB LEO 2025-04-12 04:35:51 0.0001307787 96.0 (m) DEBRIS
CZ-6A DEB LEO 2025-01-04 03:25:50 0.0001160522 830.0 (m) DEBRIS
CZ-6A DEB LEO 2024-11-14 23:14:31 0.0002519922 254.0 (m) DEBRIS

Associated space launch

Chinese polar orbiting meteorological satellite

FENGYUN 1C DEB * was lifted into orbit during the mission ‘Long March 4B | Feng Yun 1C’, on board a Long March 4B space rocket.

The launch took place on May 10, 1999, 1:33 a.m. from Launch Complex 7.

For more information about the launch, click the button.

Launch to space Long March 4B | Feng Yun 1C
Long March 4B | Feng Yun 1C

Agency: N/A

Status: Launch Successful

Launch date: May 10, 1999, 1:33 a.m. UTC

Rocket: Long March 4B

Launch pad: Launch Complex 7

Location: Taiyuan Satellite Launch Center, People's Republic of China

...

Latest news about this satellite

There are no fresh news available about this satellite. Check back as we update our databases every day.


Newsletter sign-up

Weekly statistics, charts and insights to help you stay on top of the space industry.